This is the latest recevied weather packets stored in our database for station/object W7BL. If no packets are shown the sender has not sent any weather packets the latest 10 day(s).
| Time | Temp. | Humidity | Pressure | Rain* | Wind** | Luminosity | Snow |
|---|---|---|---|---|---|---|---|
| 1777506038 | 17.78° C | 36% | - | 0 mm | - | - | - |
| 1777505733 | 17.78° C | 34% | - | 0 mm | - | - | - |
| 1777505432 | 17.78° C | 31% | - | 0 mm | - | - | - |
| 1777505128 | 17.78° C | 30% | - | 0 mm | - | - | - |
| 1777504825 | 17.78° C | 30% | - | 0 mm | - | - | - |
| 1777504522 | 18.33° C | 31% | - | 0 mm | - | - | - |
| 1777504218 | 17.78° C | 31% | - | 0 mm | - | - | - |
| 1777503913 | 17.78° C | 30% | - | 0 mm | - | - | - |
| 1777503609 | 18.33° C | 28% | - | 0 mm | - | - | - |
| 1777503307 | 19.44° C | 28% | - | 0 mm | - | - | - |
| 1777503003 | 18.89° C | 29% | - | 0 mm | - | - | - |
| 1777502701 | 18.33° C | 30% | - | 0 mm | - | - | - |
| 1777502397 | 18.89° C | 30% | - | 0 mm | - | - | - |
| 1777502094 | 20° C | 26% | - | 0 mm | - | - | - |
| 1777501791 | 19.44° C | 26% | - | 0 mm | - | - | - |
| 1777501489 | 19.44° C | 27% | - | 0 mm | - | - | - |
| 1777501185 | 18.89° C | 28% | - | 0 mm | - | - | - |
| 1777500884 | 18.89° C | 30% | - | 0 mm | - | - | - |
| 1777500580 | 18.89° C | 29% | - | 0 mm | - | - | - |
| 1777500277 | 18.89° C | 29% | - | 0 mm | - | - | - |
| 1777499973 | 18.89° C | 29% | - | 0 mm | - | - | - |
| 1777499670 | 19.44° C | 32% | - | 0 mm | - | - | - |
| 1777499367 | 18.89° C | 30% | - | 0 mm | - | - | - |
| 1777499066 | 18.33° C | 31% | - | 0 mm | - | - | - |
| 1777498761 | 17.78° C | 32% | - | 0 mm | - | - | - |
* Rain latest hour (hover to see other rain measurements)
** Current wind speed in m/s (hover to see current wind gust speed)